Home > Weather > Ljubljana > Past weeks

Flag for Slovenia Past Weather in Ljubljana, Slovenia — Yesterday and Last 2 Weeks

Now
82 °F

Warm.


Feels Like: 83 °F
Forecast: 62 / 83 °F
Wind: 3 mph from Southeast

Location: Ljubljana / Bezigrad

Current Time: Jul 25, 2016 at 6:05:23 PM

Latest Report: Jul 25, 2016 at 5:00 PM


Visibility: N/A

Pressure: 29.95 "Hg

Humidity: 57%

Dew Point: 65 °F

Location of LjubljanaLocation

Past Weather in Ljubljana — Graph

°F

Ljubljana Temperature Yesterday

Maximum temperature yesterday: 88 °F (at 2:00 PM)
Minimum temperature yesterday: 67 °F (at 6:00 AM)
Average temperature yesterday: 78 °F

High & Low Weather Summary for the Past Weeks

 TemperatureHumidityPressure
High92 °F (Jul 11, 5:00 PM)96% (Jul 23, 6:00 AM)30.18 "Hg (Jul 23, 6:00 AM)
Low57 °F (Jul 16, 5:00 AM)32% (Jul 11, 5:00 PM)29.71 "Hg (Jul 13, 3:00 PM)
Average74 °F63%29.98 "Hg
* Reported Jul 10 4:00 PM — Jul 25 4:00 PM, Ljubljana, Weather by CustomWeather, © 2016

Note: Actual official high and low records may vary slightly from our data, if they occured in-between our weather recording intervals... More about our weather records

Advertising

Ljubljana Weather History for the Previous 24 Hours

Scroll right to see more
 ConditionsComfort  
Time TempWeatherWind HumidityBarometerVisibility
4:00 PM
Mon, Jul 25
79 °FWarm.2 mph55%29.97 "HgN/A
3:00 PM85 °FPartly sunny.2 mph48%29.94 "Hg22 mi
2:00 PM84 °FPartly sunny.3 mph49%29.95 "Hg25 mi
1:00 PM83 °FPartly sunny.3 mph49%29.97 "Hg25 mi
12:00 PM81 °FPartly sunny.2 mph53%29.99 "Hg25 mi
11:00 AM80 °FPartly sunny.2 mph57%29.99 "Hg25 mi
10:00 AM78 °FScattered clouds.1 mph56%29.98 "Hg25 mi
9:00 AM76 °FScattered clouds.2 mph61%29.98 "Hg25 mi
8:00 AM72 °FPartly sunny.2 mph68%30.01 "Hg25 mi
7:00 AM71 °FPartly sunny.2 mph73%30.01 "Hg25 mi
6:00 AM70 °FOvercast.1 mph75%30.02 "Hg19 mi
5:00 AM70 °FMild.2 mph75%30.01 "HgN/A
4:00 AM71 °FMild.2 mph75%30.00 "HgN/A
3:00 AM73 °FMild.2 mph75%29.99 "HgN/A
2:00 AM74 °FMild.No wind73%29.98 "HgN/A
1:00 AM76 °FMild.2 mph67%30.00 "HgN/A
12:00 AM76 °FMild.1 mph70%29.98 "HgN/A
11:00 PM
Sun, Jul 24
77 °FWarm.1 mph68%29.98 "HgN/A
10:00 PM78 °FPassing clouds.2 mph66%29.98 "Hg19 mi
9:00 PM80 °FPassing clouds.2 mph65%29.96 "Hg19 mi
8:00 PM83 °FPartly sunny.1 mph58%29.95 "Hg19 mi
7:00 PM83 °FWarm.1 mph54%29.94 "HgN/A
6:00 PM84 °FWarm.2 mph52%29.94 "HgN/A
Weather by CustomWeather, © 2016

See weather overviewHow to use our weather pages